レモン彗星

C/2023 H5 ( Lemmon )

English version
Home page
Updated on December 1, 2023

---------------------------------------------------------------------

・ プロフィール

発見日 2023年4月19日
発見光度 20.2等
発見者 Mt. Lemmon Survey

・ 写真集

・ 軌道要素

Epoch 2023 Feb. 25.0 TT = JDT 2460000.5
T 2025 June 30.11146 TT                                 Rudenko
q   4.3122314            (2000.0)            P               Q
z  -0.0001339      Peri.   60.08625     -0.42532231     +0.83577018
 +/-0.0000344      Node   159.47722     -0.07885276     -0.41645560
e   1.0005774      Incl.   97.89178     +0.90160034     +0.35784484
>From 62 observations 2022 Dec. 1-2023 June 15, mean residual 0".1.

・ 星図

・ 光度変化

        m1 = 7.0 + 5 logΔ + 10.0 log r

---------------------------------------------------------------------

軌道要素はM.P.E.C. 2023-N01に掲載されたものです。
星図はステラナビゲータ Ver.11 (アストロアーツ) で作成したものです。
光度グラフはComet for Windowsで作成したものです。

---------------------------------------------------------------------

Copyright(C) Seiichi Yoshida (comet@aerith.net). All rights reserved.